TimeCST,TemperatureF,Dew PointF,Humidity,Sea Level PressureIn,VisibilityMPH,Wind Direction,Wind SpeedMPH,Gust SpeedMPH,PrecipitationIn,Events,Conditions,WindDirDegrees,DateUTC
12:53 AM,48.9,34.0,56,30.01,10.0,SW,6.9,-,N/A,,Clear,230,2012-11-30 06:53:00
1:53 AM,46.9,33.1,59,30.01,10.0,SW,6.9,-,N/A,,Clear,230,2012-11-30 07:53:00
2:53 AM,46.9,33.1,59,30.02,10.0,SW,5.8,-,N/A,,Clear,220,2012-11-30 08:53:00
3:53 AM,42.1,32.0,67,30.04,10.0,Calm,Calm,-,N/A,,Clear,0,2012-11-30 09:53:00
4:53 AM,36.0,30.0,79,30.06,10.0,Calm,Calm,-,N/A,,Clear,0,2012-11-30 10:53:00
5:53 AM,33.1,28.0,82,30.07,10.0,Calm,Calm,-,N/A,,Clear,0,2012-11-30 11:53:00
6:53 AM,33.1,28.9,85,30.09,10.0,Calm,Calm,-,N/A,,Clear,0,2012-11-30 12:53:00
7:53 AM,30.0,27.0,88,30.10,8.0,Calm,Calm,-,N/A,,Clear,0,2012-11-30 13:53:00
8:53 AM,41.0,36.0,82,30.10,7.0,West,3.5,-,N/A,,Clear,280,2012-11-30 14:53:00
9:53 AM,46.0,37.0,71,30.11,10.0,Calm,Calm,-,N/A,,Clear,0,2012-11-30 15:53:00
10:53 AM,51.1,36.0,56,30.10,10.0,Calm,Calm,-,N/A,,Clear,0,2012-11-30 16:53:00
11:53 AM,53.1,35.1,50,30.09,10.0,Calm,Calm,-,N/A,,Clear,0,2012-11-30 17:53:00
12:53 PM,55.9,35.1,45,30.07,10.0,Calm,Calm,-,N/A,,Clear,0,2012-11-30 18:53:00
1:53 PM,59.0,37.0,44,30.04,10.0,Calm,Calm,-,N/A,,Clear,0,2012-11-30 19:53:00
2:53 PM,60.1,37.0,42,30.02,10.0,Calm,Calm,-,N/A,,Clear,0,2012-11-30 20:53:00
3:53 PM,57.9,37.9,47,30.02,10.0,East,5.8,-,N/A,,Clear,80,2012-11-30 21:53:00
4:53 PM,54.0,37.9,55,30.02,10.0,East,3.5,-,N/A,,Clear,80,2012-11-30 22:53:00
5:53 PM,48.2,35.6,62,30.01,10.0,ENE,6.9,-,N/A,,Clear,60,2012-11-30 23:53:00
6:53 PM,46.4,35.6,66,30.02,10.0,East,3.5,-,N/A,,Clear,100,2012-12-01 00:53:00
7:53 PM,45.0,36.0,71,30.03,10.0,Calm,Calm,-,N/A,,Clear,0,2012-12-01 01:53:00
8:53 PM,43.0,36.0,76,30.02,10.0,Calm,Calm,-,N/A,,Clear,0,2012-12-01 02:53:00
9:53 PM,45.0,37.0,74,30.01,10.0,Calm,Calm,-,N/A,,Overcast,0,2012-12-01 03:53:00
10:17 PM,46.4,39.2,76,30.00,10.0,Calm,Calm,-,N/A,,Overcast,0,2012-12-01 04:17:00
10:45 PM,48.2,41.0,76,29.99,10.0,Calm,Calm,-,N/A,,Overcast,0,2012-12-01 04:45:00
10:53 PM,48.9,41.0,74,30.00,10.0,Calm,Calm,-,N/A,,Overcast,0,2012-12-01 04:53:00
11:53 PM,44.6,41.0,87,29.99,9.0,East,5.8,-,N/A,,Scattered Clouds,100,2012-12-01 05:53:00